User: anonymous   Login
Location: Eckley
(40.9930°N, 75.8630°W)
Time: 03:06:34
(UTC-04:00)
Language:

Cosmos 2221 Rocket - Orbit

View from above orbital plane
View from above orbital plane
View from above satellite
View from above satellite

Ground track
Ground track

The orbit data is extracted from the following two-line orbital elements,

1 22237U 92080B   17118.93233976 +.00000062 +00000-0 +53575-5 0  9993
2 22237 082.5118 163.5482 0019959 011.3044 041.3020 14.78312640316071
Epoch (UTC): 28 April 2017 22:22:34
Eccentricity: 0.0019959
inclination: 82.5118°
perigee height: 620 km
apogee height: 648 km
right ascension of ascending node: 163.5482°
argument of perigee: 11.3044°
revolutions per day: 14.78312640
mean anomaly at epoch: 41.3020°
orbit number at epoch: 31607

The dashed part of the orbit path shows where the satellite is in the earth's shadow,  

DLR